Weather History for KDUJ - November, 2010

Change the Weather History Date:

Saturday, November 6, 2010

  Actual Average Record
Temperature  
Mean Temperature 36 °F 43 °F  
Max Temperature 39 °F 51 °F 73 °F (1975)
Min Temperature 32 °F 34 °F 19 °F (1967)
Degree Days  
Heating Degree Days 30 22  
Month to date heating degree days 129  
Since 1 July heating degree days 872  
Cooling Degree Days 0 0  
Month to date cooling degree days 0  
Year to date cooling degree days 362  
Moisture  
Dew Point 32 °F    
Average Humidity 87    
Maximum Humidity 100    
Minimum Humidity 70    
Precipitation  
Precipitation 0.00 in 0.12 in 0.62 in (2014)
Month to date precipitation 0.72  
Sea Level Pressure  
Sea Level Pressure 30.13 in    
Wind  
Wind Speed 5 mph (West)    
Max Wind Speed 13 mph    
Max Gust Speed -    
Visibility 10 miles    
Events Snow    
T = Trace of Precipitation, MM = Missing Value Source: NWS Daily Summary

Daily Weather History Graph

Daily Weather History Graph

Search for Another Location

Airport or City:

Trip Planner

Search our weather history database for the weather conditions in past years. The results will help you decide how hot, cold, wet, or windy it might be!

Date:

Astronomy

Nov. 06, 2010 Rise Set
Actual Time 7:52 AM EDT 6:05 PM EDT
Civil Twilight 7:23 AM EDT 6:34 PM EDT
Nautical Twilight 6:50 AM EDT 7:06 PM EDT
Astronomical Twilight 6:18 AM EDT 7:39 PM EDT
Moon 8:28 AM EDT (11/6) 6:10 PM EDT (11/6)
Length of Visible Light 11h 10m
Length of Day
10h 12m
New Moon, 0% of the Moon is Illuminated
Nov 6
New Moon
Nov 13
First Quarter
Nov 21
Full
Nov 28
Last Quarter
Dec 5
New

Hourly Weather History & Observations

Time (EDT) Temp. Windchill Dew Point Humidity Pressure Visibility Wind Dir Wind Speed Gust Speed Precip Events Conditions
12:11 AM 33.8 °F 27.7 °F 30.2 °F 87% 29.91 in 10.0 mi West 6.9 mph - N/A   Overcast
12:46 AM 33.8 °F 28.6 °F 32.0 °F 93% 29.93 in 10.0 mi West 5.8 mph - N/A   Overcast
12:56 AM 34.0 °F 28.8 °F 32.0 °F 92% 29.97 in 10.0 mi West 5.8 mph - N/A   Overcast
1:16 AM 33.8 °F 28.6 °F 32.0 °F 93% 29.94 in 10.0 mi WSW 5.8 mph - N/A   Overcast
1:56 AM 34.0 °F 28.0 °F 30.9 °F 89% 29.99 in 10.0 mi WSW 6.9 mph - N/A   Overcast
2:11 AM 33.8 °F 27.0 °F 30.2 °F 87% 29.95 in 10.0 mi WSW 8.1 mph - N/A   Overcast
2:32 AM 33.8 °F 27.0 °F 30.2 °F 87% 29.95 in 10.0 mi West 8.1 mph - N/A   Overcast
2:56 AM 34.0 °F 28.8 °F 30.9 °F 89% 30.00 in 9.0 mi West 5.8 mph - N/A   Overcast
3:13 AM 33.8 °F 28.6 °F 32.0 °F 93% 29.96 in 9.0 mi West 5.8 mph - 0.00 in   Overcast
3:27 AM 33.8 °F 29.6 °F 32.0 °F 93% 29.97 in 10.0 mi West 4.6 mph - 0.00 in   Overcast
3:43 AM 33.8 °F 28.6 °F 32.0 °F 93% 29.97 in 10.0 mi West 5.8 mph - 0.00 in   Overcast
3:56 AM 34.0 °F 28.8 °F 32.0 °F 92% 30.01 in 10.0 mi West 5.8 mph - 0.00 in   Overcast
4:30 AM 33.8 °F 27.7 °F 32.0 °F 93% 29.98 in 10.0 mi West 6.9 mph - N/A   Overcast
4:56 AM 34.0 °F 28.0 °F 32.0 °F 92% 30.03 in 10.0 mi West 6.9 mph - N/A   Overcast
6:56 AM 34.0 °F 28.0 °F 32.0 °F 92% 30.09 in 10.0 mi WNW 6.9 mph - N/A   Overcast
7:53 AM 33.8 °F - 33.8 °F 100% 30.08 in 5.0 mi Calm Calm - N/A   Overcast
7:56 AM 34.0 °F - 33.1 °F 96% 30.13 in 5.0 mi Calm Calm - N/A   Overcast
8:43 AM 33.8 °F - 33.8 °F 100% 30.11 in 10.0 mi Calm Calm - N/A   Overcast
8:56 AM 34.0 °F 31.0 °F 33.1 °F 96% 30.16 in 10.0 mi WSW 3.5 mph - N/A   Overcast
9:56 AM 35.1 °F 32.2 °F 33.1 °F 92% 30.19 in 10.0 mi WNW 3.5 mph - N/A   Overcast
10:03 AM 35.6 °F 31.7 °F 32.0 °F 87% 30.14 in 10.0 mi West 4.6 mph - N/A   Overcast
10:56 AM 35.1 °F 31.0 °F 32.0 °F 89% 30.21 in 10.0 mi WNW 4.6 mph - N/A   Overcast
11:24 AM 37.4 °F 33.8 °F 33.8 °F 87% 30.17 in 10.0 mi West 4.6 mph - N/A   Overcast
11:33 AM 37.4 °F 34.9 °F 32.0 °F 81% 30.17 in 10.0 mi Variable 3.5 mph - N/A   Overcast
11:48 AM 37.4 °F 34.9 °F 32.0 °F 81% 30.17 in 10.0 mi Variable 3.5 mph - N/A   Overcast
11:56 AM 37.9 °F 35.5 °F 32.0 °F 79% 30.22 in 10.0 mi NW 3.5 mph - N/A   Overcast
12:22 PM 39.2 °F 37.0 °F 30.2 °F 70% 30.17 in 10.0 mi SSW 3.5 mph - N/A   Overcast
12:31 PM 39.2 °F 37.0 °F 32.0 °F 75% 30.17 in 10.0 mi North 3.5 mph - N/A   Overcast
12:56 PM 39.0 °F 35.7 °F 30.0 °F 70% 30.21 in 10.0 mi Variable 4.6 mph - N/A   Overcast
1:56 PM 35.1 °F 26.4 °F 32.0 °F 89% 30.22 in 8.0 mi North 12.7 mph - 0.00 in Snow Light Snow
2:56 PM 37.9 °F 32.7 °F 32.0 °F 79% 30.22 in 10.0 mi North 6.9 mph - 0.00 in   Overcast
3:56 PM 37.9 °F 32.1 °F 30.0 °F 73% 30.23 in 10.0 mi NNW 8.1 mph - N/A   Overcast
4:56 PM 37.9 °F - 30.9 °F 76% 30.25 in 10.0 mi Calm Calm - 0.00 in   Overcast
5:56 PM 37.0 °F 32.4 °F 32.0 °F 82% 30.27 in 10.0 mi WNW 5.8 mph - N/A   Overcast
6:56 PM 36.0 °F 33.3 °F 30.0 °F 79% 30.30 in 10.0 mi WNW 3.5 mph - N/A   Overcast
7:56 PM 35.1 °F 31.0 °F 30.0 °F 82% 30.32 in 10.0 mi West 4.6 mph - N/A   Overcast
8:56 PM 35.1 °F 31.0 °F 30.0 °F 82% 30.34 in 10.0 mi West 4.6 mph - N/A   Overcast
10:28 PM 33.8 °F 29.6 °F 30.2 °F 87% 30.30 in 10.0 mi West 4.6 mph - N/A   Mostly Cloudy
10:56 PM 33.1 °F 27.7 °F 30.9 °F 92% 30.36 in 10.0 mi WNW 5.8 mph - N/A   Overcast
11:47 PM 32.0 °F 26.4 °F 30.2 °F 93% 30.32 in 10.0 mi WNW 5.8 mph - N/A   Mostly Cloudy
11:56 PM 32.0 °F 27.5 °F 30.9 °F 96% 30.37 in 10.0 mi WNW 4.6 mph - N/A   Mostly Cloudy